< < Back
Terminal Aerodrome Forecast


Current Version              Previous Versions:   1  2  3  4  5  6  7  8  9  

Terminal Aerodrome Forecast

521
FTUS42 KMLB 032013 CCA
TAFMCO
TAF COR
KMCO 032013Z 0318/0418 26012KT P6SM VCSH SCT035 SCT250
      TEMPO 0319/0322 3SM TSRA BKN020CB
     FM040000 24006KT P6SM SCT040 BKN100
     FM040900 23004KT P6SM SCT010 BKN030 OVC050
     FM041400 25008KT P6SM VCTS SCT020CB OVC040=



Latest METAR

228
SAUS70 KWBC 032000 RRA
MTRMCO
METAR KMCO 031953Z 28012KT 10SM SCT050 BKN100 BKN300 31/19 A2987 RMK AO2
SLP113 CB DSNT SE-S MOV E T03060189


USA.gov is the U.S. government's official web portal to all federal, state and local government web resources and services.